Location: Aurensan
(43.3058°N, 0.0863°E)
Time: 04:39:29
(UTC+00:00)

Daily predictions for brighter satellites

Satellite Brightness Start Highest point End
(mag) Time Altitude Azimuth Time Altitude Azimuth Time Altitude Azimuth
Cosmos 1980 Rocket 3.7 03:23:21 33° E 03:23:21 33° E 03:27:20 10° NE
NOSS 3-1 (A) 4.2 03:23:44 68° NE 03:23:58 68° NE 03:32:51 10° SE
ATLAS 3B R/B 3.7 03:27:51 37° N 03:30:19 47° NE 03:37:43 10° ESE
Cosmos 1697 Rocket 4.2 03:42:44 27° NNE 03:42:44 27° NNE 03:45:13 10° NNE
ATLAS 2AS CENTAUR R/B 3.0 03:47:22 58° N 03:47:22 58° N 03:53:09 10° NNE
Lacrosse 4 Rocket 3.6 03:49:00 23° E 03:49:00 23° E 03:51:09 10° ESE
Cosmos 1818 4.2 03:51:21 53° E 03:51:21 53° E 03:55:55 10° NE
USA 59 Rocket 2.6 03:53:36 13° NNE 03:54:03 13° NE 03:56:16 10° ENE
Cosmos 2263 Rocket 2.7 04:00:00 47° NNE 04:01:13 56° ENE 04:06:42 10° SE
Cosmos 2082 4.5 04:03:04 31° N 04:05:27 49° ENE 04:10:55 10° SE
Cosmos 2266 Rocket 4.1 04:02:32 10° S 04:08:55 77° E 04:15:20 10° N
Cosmos 2227 Rocket 3.8 04:13:54 22° S 04:13:54 22° S 04:15:54 10° S
Cosmos 2285 Rocket 3.8 04:11:34 76° WSW 04:11:34 76° WSW 04:17:53 10° SSE
BREEZE-M DEB (TANK) 4.3 04:14:05 21° NE 04:14:05 21° NE 04:16:19 10° ENE
SL-16 R/B 4.3 04:17:14 10° SSE 04:21:45 25° ESE 04:26:17 10° NE
Gbstr 26 Del rocket 3.7 04:22:25 48° SSE 04:22:53 50° SE 04:27:51 10° ENE
USA 229 DEB 4.5 04:21:54 20° NNW 04:27:18 57° NE 04:35:15 10° SE
USA 229 4.5 04:22:01 20° NNW 04:27:24 57° NE 04:35:20 10° SE
Cosmos 1655 Rocket 4.3 04:22:08 10° S 04:28:27 70° E 04:34:47 10° NNE
Cosmos 1484 Rocket 3.6 04:26:05 10° NNE 04:29:27 43° E 04:30:40 30° SSE
IRAS Rocket 4.1 04:30:00 10° NNE 04:35:31 77° WNW 04:40:09 15° SSW
DELTA 2 R/B (1) 3.8 04:35:55 51° SW 04:36:58 60° S 04:42:27 10° ESE
Cosmos 2219 3.1 04:35:44 51° NW 04:37:02 68° WSW 04:42:37 10° SSE
S3M 3.8 04:30:50 10° NNW 04:37:04 71° W 04:43:11 10° S
BREEZE-M DEB (TANK) 3.4 04:39:16 29° ESE 04:39:16 29° ESE 04:41:03 10° E
Cosmos 1417 Rocket 4.4 04:34:47 10° NNW 04:40:45 55° W 04:46:42 10° SSW
H-2A R/B 2.6 04:39:42 10° N 04:43:09 37° NNW 04:43:09 37° NNW
BREEZE-M DEB (TANK) 2.6 04:45:30 65° NE 04:45:30 65° NE 04:51:09 10° ESE
USA 215 4.5 04:40:17 10° ENE 04:46:19 39° SE 04:52:19 10° SSW
Meteor 1-24 Rocket 3.5 04:44:49 10° SSW 04:50:15 61° WNW 04:55:34 10° N
SL-8 R/B 3.5 04:49:43 55° W 04:50:43 81° NNW 04:55:29 10° ENE
Cosmos 2278 4.5 04:46:55 10° S 04:52:21 53° ESE 04:57:49 10° NNE
ARGOS 3.1 04:50:14 10° NNE 04:55:41 85° WNW 05:01:06 10° SSW
Thor Agena Rocket 3.4 04:52:04 10° N 04:57:14 66° WNW 05:02:19 10° SSW
Meteor 2-20 4.5 04:54:09 10° NNW 05:00:06 54° W 05:06:00 10° SSW
Cosmos 1844 Rocket 4.1 04:55:34 10° N 05:00:46 36° NE 05:05:55 10° ESE
Meteor 2-20 Rocket 4.2 04:55:08 10° NNW 05:01:02 75° W 05:06:44 10° S
Cosmos 2322 Rocket 4.0 04:56:19 10° SSE 05:01:16 32° ESE 05:06:13 10° NE
Cosmos 1980 Rocket 2.7 05:05:10 32° W 05:06:14 35° NW 05:11:22 10° N
Sich 1 Rocket 4.2 05:02:14 10° N 05:06:40 58° E 05:11:06 10° SSE
H-2A R/B 4.4 05:06:11 10° NE 05:08:12 21° E 05:10:11 10° SSE
IRS-1D 4.2 05:05:42 10° N 05:09:55 30° WNW 05:09:55 30° WNW
Cosmos 2369 3.9 05:07:06 23° WSW 05:10:16 46° WNW 05:15:43 10° NNE
USA 281 3.2 05:04:45 10° S 05:11:12 58° WSW 05:17:41 10° NNW
Cosmos 1378 Rocket 3.4 05:09:33 10° SSW 05:13:58 78° W 05:18:23 10° N
Cosmos 1674 Rocket 3.5 05:11:41 10° S 05:15:59 87° E 05:20:19 10° N
Atlas Centaur 2 3.7 05:14:48 10° SSW 05:15:59 11° SSW 05:17:08 10° S
Cosmos 1025 Rocket 4.4 05:12:38 10° SSE 05:16:35 40° E 05:20:35 10° NNE
ATLAS CENTAUR R/B 3.2 05:18:24 14° NNW 05:18:24 14° NNW 05:19:42 10° N
FengYun 1-2 T 4.2 05:13:03 10° NNE 05:18:42 78° WNW 05:24:20 10° SSW
Meteor 2-5 Rocket 4.2 05:13:27 10° SW 05:18:46 37° WNW 05:24:01 10° N
USA 267 4.2 05:14:31 10° E 05:20:27 39° NNE 05:26:09 11° NW
ARIANE 6 FM1 Upper Stage 2.7 05:16:16 10° SW 05:20:28 87° SE 05:24:44 10° NE
Cosmos 371 Rocket 3.3 05:16:35 14° NNW 05:20:34 55° WSW 05:25:17 10° S
ATLAS 3B R/B 3.2 05:15:09 16° NW 05:21:12 48° WSW 05:28:24 10° S
Okean 2 Rocket 3.0 05:17:49 10° N 05:22:19 90° NNE 05:26:46 10° S
COSMO-SKYMED 1 2.5 05:18:29 10° S 05:22:49 75° WSW 05:27:11 10° NNW
Cosmos 1992 Rocket 4.0 05:17:43 10° SW 05:22:49 54° WNW 05:27:58 10° NNE
Cosmos 1697 Rocket 4.3 05:24:29 15° NW 05:24:29 15° NW 05:27:37 10° N
Cosmos 1939 Rocket 3.7 05:21:46 10° NNW 05:24:25 26° NW 05:24:25 26° NW
Lacrosse 4 Rocket 2.3 05:24:50 26° W 05:25:35 28° WSW 05:29:05 10° S
Cosmos 1486 Rocket 4.3 05:20:25 10° NNW 05:25:37 69° ENE 05:30:48 10° SSE
Cosmos 332 Rocket 4.5 05:21:23 10° NNW 05:26:12 57° ENE 05:30:58 10° SE
NOAA 12 4.1 05:22:11 10° NNE 05:27:33 86° WNW 05:32:52 10° SSW
Cosmos 1844 4.5 05:24:03 10° NNW 05:29:36 53° ENE 05:35:11 10° SE
NOSS 2-1 (D) 3.7 05:29:47 14° NW 05:33:09 82° NE 05:38:35 10° SE
Cosmos 2098 Rocket 2.7 05:30:04 10° N 05:33:47 71° E 05:36:55 10° SSE
Cosmos 2227 4.2 05:30:14 10° NNW 05:35:55 81° WSW 05:41:37 10° SSE
SJ-11-01 4.2 05:33:09 10° N 05:37:48 72° WNW 05:42:26 10° SSW
CRYOSAT 2 4.4 05:33:00 10° S 05:37:52 84° E 05:42:47 10° N
ATLAS 2AS CENTAUR R/B 4.0 05:34:50 16° WNW 05:38:17 22° NNW 05:43:34 10° NNE
USA 59 Rocket 0.2 05:39:52 12° NW 05:43:38 84° SW 05:49:14 10° SSE
Cosmos 2263 Rocket 3.3 05:41:46 15° WNW 05:44:38 22° W 05:48:47 10° SSW
Cosmos 1455 Rocket 4.2 05:40:53 10° N 05:45:04 45° ENE 05:49:13 10° SSE
Cosmos 2237 4.3 05:40:15 10° SW 05:45:50 57° WNW 05:51:27 10° NNE
Nadezhda 1 Rocket 4.3 05:39:52 10° N 05:46:01 69° E 05:52:03 10° SSE
CBERS-1 4.5 05:43:11 10° N 05:47:53 38° WNW 05:52:34 10° SW
SL-08 R/B 4.4 05:43:37 10° SSW 05:49:41 72° W 05:55:51 10° N
Cosmos 2360 Rocket 2.6 05:47:35 10° SSW 05:53:08 69° ESE 05:58:44 10° NNE
Cosmos 1869 4.5 05:49:31 10° N 05:53:10 44° ENE 05:56:49 10° SSE
Cosmos 1437 Rocket 3.5 05:50:09 10° SW 05:53:13 26° WNW 05:56:18 10° NNW
Cosmos 2151 Rocket 4.2 05:51:22 10° NNW 05:55:23 34° W 05:59:24 10° SSW
TIMED 4.5 05:53:00 10° NNW 05:57:17 66° WSW 06:01:32 10° S
Cosmos 1484 Rocket 4.4 06:01:02 10° NW 06:02:34 12° WNW 06:04:04 10° W
Cosmos 1606 2.3 06:00:20 10° N 06:03:43 87° W 06:07:04 10° S
Okean 1 Rocket 3.3 05:59:32 10° NNW 06:03:49 47° W 06:08:04 10° SSW
Cosmos 2084 Rocket 3.9 05:59:51 10° WSW 06:03:55 39° NW 06:07:54 10° NNE
BREEZE-M DEB (TANK) 3.6 05:59:20 10° WNW 06:04:20 33° N 06:06:30 10° ENE
Cosmos 1354 Rocket 4.4 05:59:33 10° NNW 06:04:52 71° ENE 06:10:07 10° SSE
SL-16 R/B 2.4 06:00:01 10° SW 06:05:30 49° WNW 06:11:00 10° NNE
Gbstr 26 Del rocket 3.8 06:05:02 10° W 06:09:34 47° NNW 06:15:10 10° NE
NOSS 2-1 (E) 4.1 06:07:25 10° NW 06:11:25 51° WSW 06:16:55 10° SSE
TRACE 4.2 06:09:04 10° S 06:12:18 81° WSW 06:15:35 10° NNW
CZ-2D R/B 3.1 06:09:20 10° N 06:12:48 55° WNW 06:16:14 10° SSW
EXPRESS MD2 2.6 06:09:52 10° WSW 06:13:10 51° NNW 06:15:29 10° NE
Cosmos 1763 Rocket 4.4 06:08:24 10° S 06:13:27 55° ESE 06:18:35 10° NNE
ADEOS Rocket 3.4 06:09:36 10° NNE 06:16:52 89° ESE 06:23:20 10° SSW
Geosat FO 4.4 06:14:10 10° SSE 06:17:35 76° WSW 06:20:53 10° NNW
CZ-2D R/B 3.3 06:14:30 10° N 06:18:26 74° WNW 06:22:25 10° SSW
